This is the latest recevied weather packets stored in our database for station/object EA3KZ-1. If no packets are shown the sender has not sent any weather packets the latest 10 day(s).
| Time | Temp. | Humidity | Pressure | Rain* | Wind** | Luminosity | Snow |
|---|---|---|---|---|---|---|---|
| 1777572629 | 19.44° C | 60% | 1012.5 hPa | 0 mm | - | - | - |
| 1777572027 | 20° C | 61% | 1012.5 hPa | 0 mm | - | - | - |
| 1777571424 | 20.56° C | 61% | 1012.5 hPa | 0 mm | - | - | - |
| 1777570822 | 20.56° C | 60% | 1012.4 hPa | 0 mm | - | - | - |
| 1777570219 | 21.11° C | 56% | 1012.3 hPa | 0 mm | - | - | - |
| 1777569617 | 21.11° C | 52% | 1012.2 hPa | 0 mm | - | - | - |
| 1777569074 | 21.11° C | 52% | 1012.2 hPa | 0 mm | - | - | - |
| 1777568472 | 21.67° C | 52% | 1012.3 hPa | 0 mm | - | - | - |
| 1777567869 | 21.67° C | 53% | 1012.3 hPa | 0 mm | - | - | - |
| 1777567266 | 21.67° C | 54% | 1012.2 hPa | 0 mm | - | - | - |
| 1777566664 | 22.22° C | 53% | 1012.4 hPa | 0 mm | - | - | - |
| 1777566061 | 21.67° C | 53% | 1012.3 hPa | 0 mm | - | - | - |
| 1777565458 | 21.67° C | 54% | 1012.4 hPa | 0 mm | - | - | - |
| 1777564856 | 21.67° C | 53% | 1012.3 hPa | 0 mm | - | - | - |
| 1777564253 | 21.67° C | 54% | 1012.4 hPa | 0 mm | - | - | - |
| 1777563651 | 21.67° C | 54% | 1012.3 hPa | 0 mm | - | - | - |
| 1777563047 | 22.22° C | 54% | 1012.2 hPa | 0 mm | - | - | - |
| 1777562445 | 22.22° C | 56% | 1012.1 hPa | 0 mm | - | - | - |
| 1777561842 | 22.22° C | 57% | 1012.1 hPa | 0 mm | - | - | - |
| 1777561239 | 22.22° C | 59% | 1012.1 hPa | 0 mm | - | - | - |
| 1777560637 | 22.78° C | 59% | 1012.1 hPa | 0 mm | - | - | - |
| 1777560034 | 22.78° C | 60% | 1012.2 hPa | 0 mm | - | - | - |
| 1777559432 | 22.78° C | 51% | 1012 hPa | 0 mm | - | - | - |
| 1777558829 | 23.33° C | 47% | 1012.2 hPa | 0 mm | - | - | - |
| 1777558227 | 23.89° C | 46% | 1012.4 hPa | 0 mm | - | - | - |
* Rain latest hour (hover to see other rain measurements)
** Current wind speed in m/s (hover to see current wind gust speed)